Weather History for Ashland, WI

Change the Weather History Date:

Saturday, April 6, 2013

  Actual Average Record
Temperature  
Mean Temperature 32 °F -  
Max Temperature 36 °F 47 °F 79 °F (1991)
Min Temperature 28 °F 24 °F 1 °F (2003)
Degree Days  
Heating Degree Days 33    
Moisture  
Dew Point 30 °F    
Average Humidity 91    
Maximum Humidity 100    
Minimum Humidity 80    
Precipitation  
Precipitation 0.00 in - - ()
Sea Level Pressure  
Sea Level Pressure 29.81 in    
Wind  
Wind Speed 5 mph (NE)    
Max Wind Speed 9 mph    
Max Gust Speed -    
Visibility 3 miles    
Events Fog , Rain , Snow    
Averages and records for this station are not official NWS values.
T = Trace of Precipitation, MM = Missing Value Source: NWS Daily Summary

Daily Weather History Graph

Daily Weather History Graph

Search for Another Location

Airport:

Trip Planner

Search our weather history database for the weather conditions in past years. The results will help you decide how hot, cold, wet, or windy it might be!

Date:

Astronomy

Apr. 06, 2013 Rise Set
Actual Time 6:32 AM CDT 7:39 PM CDT
Civil Twilight 6:02 AM CDT 8:10 PM CDT
Nautical Twilight 5:25 AM CDT 8:47 PM CDT
Astronomical Twilight 4:45 AM CDT 9:27 PM CDT
Moon 4:29 AM CDT (4/6) 3:57 PM CDT (4/6)
Length of Visible Light 14h 08m
Length of Day
13h 06m
Waning Crescent, 15% of the Moon is Illuminated
Apr 6
Waning Crescent
Apr 10
New
Apr 18
First Quarter
Apr 25
Full
May 2
Last Quarter

Hourly Weather History & Observations

Time (CDT) Temp. Windchill Dew Point Humidity Pressure Visibility Wind Dir Wind Speed Gust Speed Precip Events Conditions
12:16 AM 30.2 °F - 24.8 °F 80% 30.08 in 1.8 mi Calm Calm - 0.00 in Snow Light Snow
12:44 AM 28.4 °F 23.3 °F 26.6 °F 93% 30.07 in 0.8 mi ENE 4.6 mph - 0.00 in Snow Light Snow
12:53 AM 28.9 °F 22.8 °F 26.1 °F 89% 30.10 in 1.0 mi ENE 5.8 mph - 0.00 in Snow Light Snow
1:00 AM 28.4 °F 23.3 °F 26.6 °F 93% 30.06 in 1.5 mi ENE 4.6 mph - 0.00 in Snow Light Snow
1:11 AM 28.4 °F 23.3 °F 26.6 °F 93% 30.05 in 3.0 mi ENE 4.6 mph - 0.00 in Snow Light Snow
1:21 AM 28.4 °F 23.3 °F 26.6 °F 93% 30.05 in 3.0 mi ENE 4.6 mph - 0.00 in Snow Light Snow
1:29 AM 28.4 °F 23.3 °F 26.6 °F 93% 30.04 in 2.0 mi East 4.6 mph - 0.00 in Snow Light Snow
1:41 AM 28.4 °F 22.2 °F 26.6 °F 93% 30.03 in 1.8 mi ENE 5.8 mph - 0.00 in Snow Light Snow
1:51 AM 28.4 °F 22.2 °F 26.6 °F 93% 30.03 in 1.5 mi ENE 5.8 mph - 0.00 in Snow Light Snow
1:53 AM 28.9 °F 22.8 °F 27.0 °F 92% 30.06 in 1.5 mi ENE 5.8 mph - 0.00 in Snow Light Snow
2:24 AM 30.2 °F 25.4 °F 28.4 °F 93% 30.01 in 1.2 mi ENE 4.6 mph - 0.00 in Snow Light Snow
2:40 AM 30.2 °F 25.4 °F 28.4 °F 93% 29.99 in 1.2 mi East 4.6 mph - 0.00 in Snow Light Snow
2:49 AM 30.2 °F 22.6 °F 28.4 °F 93% 29.99 in 1.2 mi East 8.1 mph - 0.00 in Snow Light Snow
2:53 AM 30.0 °F 24.1 °F 28.0 °F 92% 30.02 in 1.2 mi ENE 5.8 mph - 0.00 in Snow Light Snow
3:10 AM 30.2 °F 22.6 °F 28.4 °F 93% 29.97 in 1.0 mi ENE 8.1 mph - 0.00 in Snow Light Snow
3:28 AM 30.2 °F 25.4 °F 28.4 °F 93% 29.96 in 1.2 mi East 4.6 mph - 0.00 in Snow Light Snow
3:33 AM 30.2 °F 25.4 °F 28.4 °F 93% 29.96 in 2.0 mi East 4.6 mph - 0.00 in Snow Light Snow
3:53 AM 30.9 °F 23.5 °F 28.9 °F 92% 29.98 in 2.0 mi ENE 8.1 mph - 0.00 in Snow Light Snow
4:13 AM 30.2 °F 24.3 °F 28.4 °F 93% 29.93 in 4.0 mi ENE 5.8 mph - 0.00 in Snow Light Snow
4:53 AM 30.9 °F 25.2 °F 28.9 °F 92% 29.94 in 7.0 mi East 5.8 mph - 0.00 in   Overcast
5:25 AM 30.2 °F 25.4 °F 30.2 °F 100% 29.89 in 5.0 mi ENE 4.6 mph - 0.00 in   Overcast
5:53 AM 32.0 °F 28.7 °F 30.0 °F 92% 29.92 in 7.0 mi ENE 3.5 mph - 0.00 in   Overcast
6:53 AM 32.0 °F 27.5 °F 30.0 °F 92% 29.89 in 6.0 mi East 4.6 mph - N/A   Overcast
7:24 AM 33.8 °F 28.6 °F 30.2 °F 87% 29.85 in 9.0 mi East 5.8 mph - N/A   Overcast
7:53 AM 33.1 °F 28.7 °F 30.0 °F 89% 29.87 in 6.0 mi East 4.6 mph - N/A   Overcast
8:53 AM 34.0 °F 31.0 °F 30.9 °F 89% 29.84 in 6.0 mi East 3.5 mph - 0.00 in   Overcast
9:53 AM 35.1 °F 32.2 °F 30.0 °F 82% 29.80 in 10.0 mi Variable 3.5 mph - N/A   Overcast
10:53 AM 35.1 °F 32.2 °F 30.9 °F 85% 29.76 in 9.0 mi East 3.5 mph - 0.00 in   Overcast
11:53 AM 35.1 °F 32.2 °F 30.9 °F 85% 29.74 in 7.0 mi ENE 3.5 mph - 0.00 in   Overcast
12:53 PM 36.0 °F 32.1 °F 32.0 °F 86% 29.71 in 9.0 mi NE 4.6 mph - 0.00 in   Overcast
1:33 PM 35.6 °F 30.7 °F 33.8 °F 93% 29.66 in 8.0 mi NE 5.8 mph - N/A   Overcast
1:53 PM 35.1 °F 29.3 °F 33.1 °F 92% 29.68 in 6.0 mi NE 6.9 mph - N/A   Overcast
2:08 PM 35.6 °F 29.9 °F 32.0 °F 87% 29.65 in 9.0 mi NE 6.9 mph - N/A   Overcast
2:53 PM 34.0 °F 28.8 °F 32.0 °F 92% 29.66 in 4.0 mi NE 5.8 mph - 0.00 in Rain Light Rain
3:28 PM 33.8 °F 29.6 °F 32.0 °F 93% 29.62 in 2.5 mi NE 4.6 mph - 0.00 in Snow Light Snow
3:39 PM 33.8 °F 28.6 °F 30.2 °F 87% 29.62 in 1.2 mi North 5.8 mph - 0.00 in Snow Light Snow
3:45 PM 33.8 °F 27.7 °F 30.2 °F 87% 29.61 in 0.8 mi North 6.9 mph - 0.00 in Snow Light Snow
3:53 PM 33.1 °F 25.5 °F 30.9 °F 92% 29.64 in 0.5 mi NNE 9.2 mph - 0.00 in Fog , Snow Snow
4:01 PM 33.8 °F 26.4 °F 30.2 °F 87% 29.61 in 1.0 mi NNE 9.2 mph - 0.00 in Snow Light Snow
4:53 PM 32.0 °F 24.2 °F 30.9 °F 96% 29.64 in 0.8 mi NNE 9.2 mph - 0.00 in Snow Light Snow
5:12 PM 32.0 °F 24.8 °F 30.2 °F 93% 29.61 in 0.2 mi NNE 8.1 mph - 0.00 in Fog , Snow Heavy Snow
5:22 PM 32.0 °F 24.8 °F 30.2 °F 93% 29.61 in 0.5 mi NNE 8.1 mph - 0.00 in Fog , Snow Snow
5:35 PM 32.0 °F 26.4 °F 30.2 °F 93% 29.62 in 0.2 mi NNE 5.8 mph - 0.00 in Fog , Snow Heavy Snow
5:53 PM 32.0 °F 26.4 °F 30.9 °F 96% 29.65 in 0.2 mi NNE 5.8 mph - 0.00 in Fog , Snow Heavy Snow
6:16 PM 32.0 °F 25.6 °F 30.2 °F 93% 29.62 in 0.5 mi North 6.9 mph - 0.00 in Fog , Snow Snow
6:53 PM 32.0 °F 26.4 °F 30.9 °F 96% 29.65 in 0.8 mi North 5.8 mph - 0.00 in Snow Light Snow
7:19 PM 32.0 °F 26.4 °F 30.2 °F 93% 29.62 in 1.2 mi North 5.8 mph - 0.00 in Snow Light Snow
7:53 PM 32.0 °F 26.4 °F 30.9 °F 96% 29.64 in 2.0 mi NNW 5.8 mph - 0.00 in Snow Light Snow
8:15 PM 32.0 °F 26.4 °F 30.2 °F 93% 29.62 in 1.8 mi NNW 5.8 mph - 0.00 in Snow Light Snow
8:22 PM 32.0 °F 27.5 °F 30.2 °F 93% 29.62 in 2.5 mi NNW 4.6 mph - 0.00 in Snow Light Snow
8:30 PM 32.0 °F 27.5 °F 30.2 °F 93% 29.62 in 3.0 mi NNW 4.6 mph - 0.00 in Snow Light Snow
8:53 PM 33.1 °F 30.0 °F 32.0 °F 96% 29.66 in 3.0 mi NW 3.5 mph - 0.00 in Snow Light Snow
9:25 PM 33.8 °F 30.8 °F 30.2 °F 87% 29.64 in 5.0 mi NW 3.5 mph - 0.00 in Snow Light Snow
9:53 PM 33.1 °F 30.0 °F 30.9 °F 92% 29.68 in 4.0 mi NW 3.5 mph - 0.00 in Snow Light Snow
10:53 PM 33.1 °F 26.9 °F 30.0 °F 89% 29.69 in 10.0 mi NNW 6.9 mph - 0.00 in   Overcast
11:53 PM 32.0 °F 28.7 °F 30.0 °F 92% 29.70 in 10.0 mi WNW 3.5 mph - N/A   Overcast